CZ-2D R/B

Last updated on Mon Sep 07 2026 00:02:09 GMT+0000 (Coordinated Universal Time)

1 28738U 05024B 26249.63548344 .00067599 00000+0 36279-3 0 9994 2 28738 97.3434 273.7159 0004668 91.5806 268.5996 15.80070691168150
UTC large
Height (km)
Speed (km/s)
/
Latitude / Longitude
Inclination (degrees)
Orbital Period (minutes)
Azimuth
Elevation
Range (km)
Doppler Factor

Next 0 passes for location: London (51.5072 / 0.1276)

No passes found over London.
CZ-2D R/B